Weather reports worldwide

Advertisment
Emden, Germany (10200): temperature & dewpoint: 06.11.2019 17:00:00 - 12.11.2019 17:00:00 (CET)Emden, Germany (10200): temperature 5cm & temperature -5cm: 06.11.2019 17:00:00 - 12.11.2019 17:00:00 (CET)Emden, Germany (10200): temperature -20cm & temperature -100cm: 06.11.2019 17:00:00 - 12.11.2019 17:00:00 (CET)Emden, Germany (10200): wind speed & gusts: 06.11.2019 17:00:00 - 12.11.2019 17:00:00 (CET)Emden, Germany (10200): wind direction: 06.11.2019 17:00:00 - 12.11.2019 17:00:00 (CET)Emden, Germany (10200): reduced air pressure: 06.11.2019 17:00:00 - 12.11.2019 17:00:00 (CET)Emden, Germany (10200): visibility: 06.11.2019 17:00:00 - 12.11.2019 17:00:00 (CET)Emden, Germany (10200): sunshine duration: 06.11.2019 17:00:00 - 12.11.2019 17:00:00 (CET)Emden, Germany (10200): precipitation: 06.11.2019 17:00:00 - 12.11.2019 17:00:00 (CET)
Date & Time tt [°C] td [°C] tt 5cm [°C] tt -5cm [°C] tt -20cm [°C] tt -100cm [°C] ff [km/h] ff [kn] fx [km/h] fx [kn] dd ppp [hPa] vv [km] sd [min] rr [mm]
12.11.2019 17:00:00 5,0 3,2 4,5 5,8 6,4 12,0 17 9 32 17 S 998,7 23 0 0,0
12.11.2019 16:00:00 5,6 3,3 5,4 6,2 6,3 12,0 16 9 38 21 S 998,4 75 3 0,0
12.11.2019 15:00:00 5,9 3,0 5,7 6,0 6,3 12,0 19 10 35 19 S 998,2 75 11 0,0
12.11.2019 14:00:00 6,0 3,4 6,1 5,9 6,2 12,0 22 12 40 22 S 998,5 38 0 0,0
12.11.2019 13:00:00 6,1 2,7 6,1 5,9 6,2 12,0 22 12 37 20 S 998,6 65 0 0,0
12.11.2019 12:00:00 5,7 2,8 5,8 5,6 6,1 12,0 23 12 42 23 S 998,8 47 11 0,0
12.11.2019 11:00:00 5,4 3,0 5,5 5,1 6,1 12,0 24 13 45 25 S 999,0 39 0 0,0
12.11.2019 10:00:00 5,2 3,2 5,1 5,0 6,1 12,0 23 12 42 23 S 998,9 28 0 0,0
12.11.2019 09:00:00 5,1 3,7 4,8 4,7 6,2 12,0 21 12 47 26 S 998,5 24 0 0,2
12.11.2019 08:00:00 4,5 3,6 4,1 4,7 6,2 12,0 20 11 39 21 SSW 998,1 12 0 1,6
12.11.2019 07:00:00 3,7 2,7 3,4 4,8 6,2 12,0 24 13 53 28 SSW 998,2 14 0 0,9
12.11.2019 06:00:00 5,2 3,0 4,9 4,8 6,2 12,0 24 13 43 23 SSW 997,7 50 0 0,0
12.11.2019 05:00:00 5,2 3,0 4,9 4,7 6,2 12,1 29 15 48 26 SSW 998,0 62 0 0,0
12.11.2019 04:00:00 5,0 3,1 4,0 4,8 6,3 12,1 23 13 41 22 S 997,7 41 0 0,0
12.11.2019 03:00:00 5,5 4,0 4,6 5,0 6,3 12,1 23 12 42 23 S 998,1 28 0 0,0
12.11.2019 02:00:00 5,7 3,9 4,9 5,2 6,2 12,1 26 14 42 23 SSW 998,4 38 0 0,0
12.11.2019 01:00:00 6,0 4,3 5,2 5,3 6,2 12,1 23 12 40 22 S 998,2 32 0 0,0
12.11.2019 00:00:00 5,8 4,5 4,9 5,3 6,2 12,1 20 11 36 19 S 998,4 41 0 0,3
11.11.2019 23:00:00 6,1 4,9 5,6 5,3 6,2 12,1 19 11 38 21 S 998,2 32 0 0,1
11.11.2019 22:00:00 5,8 4,6 5,4 5,2 6,2 12,1 24 13 39 21 S 998,2 20 0 0,0
11.11.2019 21:00:00 5,7 3,8 5,5 5,1 6,1 12,1 29 16 46 25 SSE 998,0 32 0 0,0
11.11.2019 20:00:00 6,1 3,3 5,8 5,1 6,1 12,1 32 17 50 27 SSE 998,1 44 0 0,0
11.11.2019 19:00:00 5,5 2,9 5,1 5,1 6,1 12,1 28 15 43 23 SE 998,4 57 0 0,0
11.11.2019 18:00:00 5,7 2,7 5,4 5,2 6,0 12,1 31 17 41 22 SE 998,7 59 0 0,0
11.11.2019 17:00:00 6,3 2,9 5,9 5,3 6,0 12,1 26 14 42 23 SE 999,3 64 0 0,0
11.11.2019 16:00:00 6,4 2,8 6,0 5,3 5,9 12,1 31 17 46 25 SSE 1000,0 60 0 0,0
11.11.2019 15:00:00 6,4 3,0 6,2 5,2 5,9 12,1 29 16 40 22 SE 1000,9 58 0 0,0
11.11.2019 14:00:00 5,6 2,9 5,6 4,9 5,8 12,1 25 13 38 20 SE 1002,3 58 0 0,0
11.11.2019 13:00:00 4,7 2,3 4,8 4,6 5,8 12,1 26 14 37 20 SE 1003,1 44 0 0,0
11.11.2019 12:00:00 4,0 2,3 4,0 4,3 5,8 12,2 23 12 34 18 SE 1004,4 25 0 0,0
11.11.2019 11:00:00 3,2 2,1 3,5 3,8 5,8 12,2 19 10 29 15 SSE 1005,6 13 0 0,0
11.11.2019 10:00:00 1,9 1,9 2,3 3,3 5,9 12,2 18 10 31 17 SSE 1006,4 6 0 0,0
11.11.2019 09:00:00 1,4 1,3 1,7 3,1 5,9 12,2 20 11 32 18 SSE 1006,8 1,3 0 0,0
11.11.2019 08:00:00 1,0 0,7 1,2 2,9 6,0 12,2 21 12 30 16 S 1007,3 0,9 0 0,0
11.11.2019 07:00:00 1,2 0,5 0,5 2,8 6,2 12,2 16 8 21 12 SSE 1007,9 9 0 0,0
11.11.2019 06:00:00 1,5 0,6 0,6 2,9 6,3 12,2 12 7 21 11 SSE 1008,7 9 0 0,0
11.11.2019 05:00:00 1,5 0,6 0,6 3,0 6,4 12,2 13 7 17 9 SSE 1010,0 8 0 0,0
11.11.2019 04:00:00 1,4 0,6 -0,1 3,3 6,5 12,2 9 5 16 9 SSE 1011,0 7 0 0,0
11.11.2019 03:00:00 3,0 1,4 1,3 3,6 6,6 12,2 10 5 21 11 S 1011,6 10 0 0,0
11.11.2019 02:00:00 3,5 1,9 1,7 3,9 6,7 12,2 13 7 21 11 SSW 1012,2 10 0 0,0
11.11.2019 01:00:00 3,8 1,9 1,9 4,3 6,8 12,2 8 5 19 10 S 1012,3 15 0 0,0
11.11.2019 00:00:00 4,6 2,6 2,7 4,7 6,9 12,2 11 6 19 10 S 1012,5 17 0 0,0
10.11.2019 23:00:00 5,6 3,0 4,6 5,0 6,9 12,2 12 7 24 13 S 1013,0 21 0 0,0
10.11.2019 22:00:00 5,3 3,2 4,7 4,7 7,0 12,2 16 8 27 14 SSW 1013,3 20 0 0,0
10.11.2019 21:00:00 5,0 3,2 3,5 5,0 7,1 12,2 11 6 20 11 S 1013,3 20 0 0,0
10.11.2019 20:00:00 5,4 3,3 3,7 5,3 7,1 12,2 12 6 18 10 SSW 1013,7 24 0 0,0
10.11.2019 19:00:00 5,9 3,4 4,3 5,8 7,1 12,2 11 6 25 13 SSW 1013,7 24 0 0,0
10.11.2019 18:00:00 6,8 3,7 5,3 6,3 7,1 12,2 15 8 24 13 SSW 1013,2 30 0 0,0
10.11.2019 17:00:00 7,6 4,2 6,5 6,9 7,0 12,3 10 5 19 11 SSW 1013,2 38 16 0,0
10.11.2019 16:00:00 8,3 4,1 7,5 7,3 6,9 12,3 12 6 23 12 SW 1012,7 39 16 0,0
10.11.2019 15:00:00 8,2 4,2 7,9 7,5 6,8 12,3 16 8 32 18 SSW 1012,4 45 6 0,0
10.11.2019 14:00:00 8,7 3,8 9,0 7,3 6,7 12,3 19 10 34 18 SSW 1012,1 47 25 0,0
10.11.2019 13:00:00 7,9 4,3 8,7 6,8 6,6 12,3 15 8 27 14 SSW 1012,1 33 10 0,0
10.11.2019 12:00:00 6,7 4,1 7,4 6,0 6,6 12,3 13 7 26 14 SSW 1012,1 24 0 0,0
10.11.2019 11:00:00 4,9 3,3 5,2 5,6 6,6 12,3 13 7 24 13 SSW 1012,2 17 5 0,0
10.11.2019 10:00:00 4,6 3,2 5,1 5,2 6,6 12,3 16 9 28 15 S 1011,5 14 2 0,0
10.11.2019 09:00:00 4,5 3,2 4,2 5,0 6,6 12,3 15 8 27 14 S 1010,7 15 0 0,0
10.11.2019 08:00:00 4,4 3,1 4,1 5,0 6,7 12,3 16 9 32 17 SSW 1009,8 14 0 0,0
10.11.2019 07:00:00 4,5 3,2 4,2 5,1 6,7 12,3 18 10 28 15 SSW 1009,0 15 0 0,0
10.11.2019 06:00:00 5,0 3,5 4,6 5,2 6,7 12,3 16 8 25 14 S 1008,7 18 0 0,0
10.11.2019 05:00:00 5,4 3,7 5,1 5,3 6,7 12,3 15 8 26 14 S 1008,1 21 0 0,0
10.11.2019 04:00:00 5,8 3,7 5,3 5,3 6,7 12,3 17 9 29 16 SSW 1007,5 27 0 0,0
10.11.2019 03:00:00 5,8 3,7 5,2 5,4 6,7 12,3 16 8 31 17 S 1007,3 26 0 0,0
10.11.2019 02:00:00 6,2 3,6 5,7 5,4 6,7 12,3 18 10 29 16 SSW 1006,8 28 0 0,0
10.11.2019 01:00:00 6,3 3,9 5,8 5,3 6,7 12,3 14 8 29 15 S 1006,6 29 0 0,0
10.11.2019 00:00:00 6,1 3,9 5,1 5,3 6,7 12,3 14 8 32 17 S 1006,0 30 0 0,0
09.11.2019 23:00:00 6,4 4,1 5,4 5,6 6,7 12,3 18 10 35 19 S 1005,5 31 0 0,0
09.11.2019 22:00:00 6,6 4,3 5,8 5,7 6,6 12,3 19 10 35 19 S 1005,2 32 0 0,0
09.11.2019 21:00:00 6,6 5,2 6,0 5,9 6,6 12,3 22 12 40 22 S 1004,9 29 0 0,0
09.11.2019 20:00:00 6,6 4,7 5,8 5,9 6,5 12,3 22 12 36 19 S 1004,7 44 0 0,1
09.11.2019 19:00:00 6,5 5,5 6,0 5,9 6,5 12,3 20 11 32 17 S 1004,8 12 0 0,7
09.11.2019 18:00:00 6,6 5,6 6,1 5,9 6,4 12,4 24 13 38 20 SSE 1004,7 7 0 0,6
09.11.2019 17:00:00 7,0 5,3 6,3 5,9 6,3 12,4 24 13 31 17 SE 1004,4 14 0 0,0
09.11.2019 16:00:00 6,7 5,6 6,2 5,9 6,2 12,4 19 10 26 14 SE 1004,6 12 0 0,3
09.11.2019 15:00:00 6,8 5,4 6,7 5,8 6,1 12,4 18 10 25 14 SE 1004,8 14 0 0,0
09.11.2019 14:00:00 6,3 5,5 6,6 5,4 6,0 12,4 17 9 27 15 SSE 1005,2 9 0 0,0
09.11.2019 13:00:00 5,3 4,8 5,7 5,1 5,9 12,4 17 9 29 15 SSE 1005,6 7 0 0,0
09.11.2019 12:00:00 4,3 4,0 4,8 4,5 5,9 12,4 18 10 29 16 S 1005,9 4,4 0 0,0
09.11.2019 11:00:00 4,9 3,9 5,3 3,7 5,9 12,4 15 8 24 13 SSE 1006,3 11 54 0,0
09.11.2019 10:00:00 3,2 3,1 4,2 2,6 6,0 12,4 6 3 8 4 SE 1006,5 7 51 0,0
09.11.2019 09:00:00 -0,1 -0,1 -0,2 2,1 6,1 12,4 6 4 9 5 SE 1006,7 0,2 0 0,0
09.11.2019 08:00:00 -0,5 -0,5 -1,0 2,1 6,3 12,4 8 5 10 6 ESE 1006,7 0,2 0 0,0
09.11.2019 07:00:00 -1,1 -1,4 -3,0 2,2 6,4 12,4 5 3 9 5 SSE 1006,8 0,2 0 0,0
09.11.2019 06:00:00 0,2 0,2 -2,9 2,4 6,5 12,4 6 3 8 5 SE 1006,9 1,7 0 0,0
09.11.2019 05:00:00 0,0 0,0 -2,9 2,6 6,7 12,4 6 3 8 4 SE 1007,1 0,7 0 0,0
09.11.2019 04:00:00 0,0 -0,1 -1,8 2,8 6,8 12,4 5 3 7 4 SSE 1007,4 0,3 0 0,0
09.11.2019 03:00:00 0,1 0,1 -2,2 3,0 7,0 12,4 5 3 9 5 SSE 1007,3 0,3 0 0,0
09.11.2019 02:00:00 -0,5 -0,7 -1,0 3,1 7,1 12,4 9 5 17 9 E 1007,5 0,3 0 0,0
09.11.2019 01:00:00 -0,2 -0,2 -2,7 3,4 7,3 12,4 3 2 8 4 SSE 1007,4 2,5 0 0,0
09.11.2019 00:00:00 0,1 0,0 -1,7 3,7 7,4 12,4 5 3 8 4 E 1007,7 0,3 0 0,0
08.11.2019 23:00:00 0,3 0,3 -2,4 4,1 7,6 12,4 5 3 7 4 SSE 1008,0 0,4 0 0,0
08.11.2019 22:00:00 1,6 1,5 -1,8 4,5 7,7 12,4 5 3 7 4 SE 1008,0 0,5 0 0,0
08.11.2019 21:00:00 2,2 2,2 -1,1 4,8 7,8 12,4 2 1 5 3 E 1007,9 16 0 0,0
08.11.2019 20:00:00 2,6 2,4 -0,7 5,2 7,9 12,4 4 2 8 4 SSW 1007,7 12 0 0,0
08.11.2019 19:00:00 2,8 2,7 -0,6 5,8 7,9 12,4 5 3 8 4 ESE 1007,6 0,4 0 0,0
08.11.2019 18:00:00 4,1 3,7 -0,3 6,5 7,9 12,4 5 3 6 3 E 1007,3 16 0 0,0
08.11.2019 17:00:00 6,8 4,7 2,0 7,3 7,8 12,4 4 2 11 6 S 1006,9 44 20 0,0
08.11.2019 16:00:00 8,8 5,0 8,2 7,8 7,7 12,4 8 4 20 11 S 1006,7 51 60 0,0
08.11.2019 15:00:00 9,2 5,3 9,9 8,0 7,6 12,4 11 6 18 10 SSE 1006,1 60 52 0,0
08.11.2019 14:00:00 9,5 5,7 10,6 8,0 7,4 12,5 11 6 18 10 S 1006,1 66 60 0,0
08.11.2019 13:00:00 9,1 5,2 10,3 7,4 7,3 12,5 13 7 21 12 S 1006,2 59 60 0,0
08.11.2019 12:00:00 8,0 4,5 9,4 6,7 7,3 12,5 13 7 20 11 S 1006,4 41 60 0,0
08.11.2019 11:00:00 6,9 4,0 7,7 5,8 7,3 12,5 14 8 24 13 S 1006,3 42 60 0,0
08.11.2019 10:00:00 6,0 3,5 6,6 4,9 7,4 12,5 13 7 24 13 S 1006,0 42 60 0,0
08.11.2019 09:00:00 4,4 3,1 4,0 4,3 7,5 12,5 12 7 18 10 S 1005,7 22 38 0,0
08.11.2019 08:00:00 3,7 2,8 2,2 4,4 7,7 12,5 11 6 18 10 S 1005,1 23 0 0,0
08.11.2019 07:00:00 4,5 3,2 2,8 4,6 7,8 12,5 11 6 23 12 S 1004,2 32 0 0,0
08.11.2019 06:00:00 4,2 3,0 2,9 4,9 7,9 12,5 16 8 27 15 S 1004,0 33 0 0,0
08.11.2019 05:00:00 4,8 3,5 3,3 5,2 8,0 12,5 11 6 30 16 S 1003,0 37 0 0,0
08.11.2019 04:00:00 5,1 3,6 3,7 5,4 8,1 12,5 14 8 31 17 S 1002,8 48 0 0,0
08.11.2019 03:00:00 5,4 4,0 4,2 5,6 8,2 12,5 14 8 27 15 S 1002,2 41 0 0,0
08.11.2019 02:00:00 5,8 4,2 4,4 5,9 8,2 12,5 18 10 29 16 SSW 1001,7 48 0 0,0
08.11.2019 01:00:00 6,1 4,7 4,8 6,2 8,3 12,5 15 8 27 15 S 1001,4 41 0 0,0
08.11.2019 00:00:00 6,6 5,2 5,3 6,6 8,3 12,5 15 8 30 16 S 1000,9 32 0 0,0
07.11.2019 23:00:00 7,0 5,7 5,5 7,1 8,3 12,5 14 7 26 14 S 1000,0 26 0 0,0
07.11.2019 22:00:00 8,0 6,4 6,9 7,4 8,3 12,5 13 7 24 13 S 999,3 - 0 0,0
07.11.2019 21:00:00 8,2 7,0 7,7 7,5 8,3 12,5 13 7 29 16 S 998,5 27 0 0,1
07.11.2019 20:00:00 8,6 7,5 8,1 7,5 8,2 12,5 18 10 39 21 S 997,6 29 0 2,0
07.11.2019 19:00:00 7,6 7,3 7,4 7,5 8,2 12,5 19 10 33 18 E 997,1 4,3 0 2,5
07.11.2019 18:00:00 7,6 7,1 7,3 7,5 8,2 12,5 24 13 32 17 E 997,2 7 0 1,4
07.11.2019 17:00:00 7,5 6,6 7,1 7,6 8,1 12,5 23 12 32 18 E 997,1 8 0 0,3
07.11.2019 16:00:00 7,7 6,0 7,5 7,8 8,1 12,5 26 14 36 19 ESE 997,1 19 0 0,0
07.11.2019 15:00:00 8,0 6,0 8,0 7,7 8,0 12,5 22 12 30 16 E 997,2 23 0 0,0
07.11.2019 14:00:00 7,5 5,5 7,6 7,5 7,9 12,5 19 10 31 17 E 997,6 21 0 0,0
07.11.2019 13:00:00 7,4 5,3 7,6 7,2 7,8 12,5 21 12 29 16 E 998,1 23 0 0,0
07.11.2019 12:00:00 7,0 5,2 7,6 6,6 7,8 12,5 21 11 31 17 E 998,4 23 0 0,0
07.11.2019 11:00:00 5,8 4,7 5,8 6,0 7,9 12,5 18 10 24 13 E 999,2 20 0 0,0
07.11.2019 10:00:00 4,9 4,1 4,8 5,5 7,9 12,5 13 7 22 12 ESE 999,4 19 0 0,0
07.11.2019 09:00:00 3,8 3,4 3,6 5,2 8,0 12,5 13 7 17 9 E 999,8 9 0 0,0
07.11.2019 08:00:00 3,3 2,9 3,1 5,0 8,1 12,5 8 5 14 7 E 999,8 13 0 0,0
07.11.2019 07:00:00 3,2 3,1 3,1 4,9 8,2 12,5 6 4 14 8 E 1000,1 7 0 0,0
07.11.2019 06:00:00 2,5 2,3 2,4 4,8 8,3 12,5 8 4 11 6 SE 1000,3 10 0 0,0
07.11.2019 05:00:00 2,0 1,9 1,4 4,6 8,5 12,5 6 3 10 6 SE 1000,6 3,1 0 0,0
07.11.2019 04:00:00 1,7 1,6 0,0 4,7 8,7 12,5 8 4 10 5 SE 1001,1 0,4 0 0,0
07.11.2019 03:00:00 1,2 1,2 -0,2 5,1 8,8 12,6 5 3 9 5 ESE 1001,3 0,7 0 0,0
07.11.2019 02:00:00 2,4 2,2 0,2 5,3 9,0 12,6 5 3 9 5 SSE 1001,5 12 0 0,0
07.11.2019 01:00:00 2,8 2,7 -0,5 5,8 9,2 12,6 5 3 8 4 SE 1001,7 8 0 0,0
07.11.2019 00:00:00 2,6 2,3 1,0 6,0 9,3 12,6 7 4 8 4 SE 1002,0 18 0 0,0
06.11.2019 23:00:00 3,3 3,1 -0,3 6,5 9,4 12,6 4 2 5 3 SSE 1002,2 43 0 0,0
06.11.2019 22:00:00 4,8 4,1 0,8 6,9 9,5 12,6 4 2 7 4 SW 1002,3 58 0 0,0
06.11.2019 21:00:00 6,0 4,4 2,5 7,5 9,6 12,6 5 3 11 6 SW 1002,3 56 0 0,0
06.11.2019 20:00:00 6,0 4,4 4,6 7,8 9,7 12,6 8 4 13 7 WSW 1002,4 58 0 0,0
06.11.2019 19:00:00 6,3 4,5 5,5 8,2 9,8 12,6 8 4 12 7 W 1002,4 65 0 0,0
06.11.2019 18:00:00 6,6 4,2 4,8 8,6 9,8 12,6 6 3 10 5 WSW 1002,1 64 0 0,0
06.11.2019 17:00:00 6,9 4,7 5,6 9,1 9,8 12,6 9 5 14 8 WSW 1002,0 61 0 0,0

tt = temperature
td = dewpoint
tt 5cm = temperature 5cm
tt -5cm = temperature -5cm
tt -20cm = temperature -20cm
tt -100cm = temperature -100cm
ff = wind speed
fx = gusts
dd = wind direction
ppp = reduced air pressure
vv = visibility
sd = sunshine duration
rr = precipitation

Next stations